Время (UTC), дата Ветер
(°,м/с) 
Видим.   Явления Облачность Т
(°С)
Тd
(°С)
f(%) Тe
(°С)
Pmin
(гПа)
dP
(гПа)
Po
(мм)
O2
(г/м3)
Тmin Tmax R s Состояние
почвы
00 20.08.14 360 (С) 10 км  {туман}  1/1 1000 м 
[Cu hum]
+21.5 +17.5 78 +35  1009.2  0.1  750  276           
03 20.08.14 210 (ЮЗ) 20000 м  слаб. ливневой дождь  8/8 600 м кучево-дожд. 
[Cb cap]
+24.5 +18.3 68 +39  1008  -1.1  749  273           
06 20.08.14 210 (ЮЗ) 20000 м  {ливн. осадки}  8/6 600 м кучево-дожд., средняя 
[Cb cap|Ac trans]
+24.5 +18.3 68 +40  1008  -1.1  748  272           
12 20.08.14 тихо ()   20000 м    4/1 600 м кучево-дожд., средняя 
[Cb cap|Ac trans]
+18.7 +17.9 95 +33  1007.7  1.5  749  278           
15 20.08.14 тихо ()   20000 м    ясно 
+17.1 +16.5 96 +29  1007.7  -0.1  749  280           
18 20.08.14 340 (С) 20000 м    9/0 средняя 
[Ac As]
+17.3 +16.8 97 +31  1007.5  -0.1  749  280           
21 20.08.14 тихо ()   10 км  в посл. час гроза{ливн. осадки}  9/4 300 м кучево-дожд., средняя 
[Cb cap|Ac As]
+17.2 +16.7 97 +29  1007.7  0.2  749  280  +16.8      влажная 
00 21.08.14 тихо ()   4000 м  дымка{гроза, ливн. осадки}  9/3 300 м средняя 
[St|Ac As]
+19.5 +17.6 89 +33  1008.4  0.7  749  278           
03 21.08.14 230 (ЮЗ) 10 км    10/9 300 м средняя 
[St|Ac As]
+22.2 +19.1 83 +39  1008.1  -0.2  749  275           
06 21.08.14 210 (ЮЗ) 20000 м    3/3 600 м кучево-дожд., средняя 
[Cb cap|Ac trans]
+26 +18.3 63 +41  1006.5  -1.4  748  271           
12 21.08.14 320 (СЗ) 20000 м    8/3 600 м кучево-дожд., средняя, верхняя 
[Cb cap|Ac trans|Ci fib]
+19.2 +17 87 +33  1008.9  0.9  750  278           
15 21.08.14 330 (СЗ) 20000 м    5/0 средняя 
[Ac trans]
+17.7 +16.7 94 +31  1009.4  0.4  750  280           
18 21.08.14 350 (С) 20000 м    3/0 средняя 
[Ac trans]
+16.1 +15.5 96 +27  1009.9  0.4  750  282           
21 21.08.14 300 (СЗ) 20000 м  местами туман поземный  1/0 средняя 
[Ac trans]
+15.8 +14.7 93 +25  1010.4  0.5  751  283  +15.3        влажная 
00 22.08.14 360 (С) 20000 м    ясно 
+21.8 +17 74 +34  1009.9  -0.2  751  276           
03 22.08.14 100 (В) 20000 м    3/3 600 м кучево-дожд. 
[Cb calv]
+26.7 +18.3 60 +42  1009.2  -0.5  750  271           
06 22.08.14 060 (СВ) 20000 м    3/3 600 м кучево-дожд., верхняя 
[Cb calv|Ci fib]
+27.9 +17.6 54 +41  1007.3  -1.8  749  270           
12 22.08.14 тихо ()   20000 м    ясно 
+19.7 +18.9 95 +36  1007.8  0.5  749  277           
15 22.08.14 360 (С) 20000 м    ясно 
+19 +18.2 95 +36  1007.5  -0.3  749  278           
18 22.08.14 340 (С) 20000 м    ясно 
+18.1 +17.4 96 +33  1006.8  -0.7  748  279           
00 23.08.14 010 (С) 20000 м    10/0 средняя, верхняя 
[Ac lent|Ci]
+21.8 +18.3 80 +37  1007.1  0.1  748  275           
03 23.08.14 030 (СВ) 20000 м    9/0 средняя, верхняя 
[Ac lent|Cs]
+26.4 +18.5 62 +42  1006.6  -0.4  748  271           
06 23.08.14 040 (СВ) 20000 м    10/0 верхняя 
[Cs]
+28.4 +18.4 55 +44  1006  -0.5  748  269           
12 23.08.14 тихо ()   20000 м    ясно 
+19.8 +18.7 93 +36  1008.4  2.1  749  277           
15 23.08.14 340 (С) 20000 м    ясно 
+18.2 +17 93 +32  1010.2  1.7  751  280           
18 23.08.14 030 (СВ) 20000 м    4/0 средняя 
[Ac trans]
+19.4 +16.5 83 +32  1011  0.9  751  279           
00 24.08.14 060 (СВ) 20000 м    3/0 средняя, верхняя 
[Ac lent|Ci fib]
+23 +14 57 +30  1013.7  1.4  753  277           
03 24.08.14 060 (СВ) 20000 м    3/1 1000 м верхняя 
[Cu hum|Ci fib]
+25.5 +13.7 48 +32  1013.6  753  275           
06 24.08.14 080 (В) 20000 м    1/1 1000 м 
[Cu med, cong]
+25.6 +13.5 47 +32  1013.1  -0.4  753  275           
12 24.08.14 050 (СВ) 20000 м    1/0 средняя 
[Ac lent]
+18.3 +13.5 74 +25  1016.8  2.9  756  283           
15 24.08.14 010 (С) 20000 м    ясно 
+14.9 +12.4 85 +20  1017.4  0.4  756  286           
18 24.08.14 010 (С) 20000 м    ясно 
+13 +11.4 90 +17  1016.9  -0.2  756  289           
00 25.08.14 070 (В) 20000 м    1/0 средняя 
[Ac trans]
+20.1 +12.8 63 +25  1018.2  0.4  757  281           
03 25.08.14 070 (В) 20000 м    1/1 1000 м 
[Cu hum]
+23.6 +12.4 49 +28  1017.7  -0.4  756  278           
06 25.08.14 090 (В) 20000 м    1/1 1000 м 
[Cu hum]
+24.8 +11.6 44 +28  1016.4  -1.3  755  277           
09 25.08.14 090 (В) 20000 м    ясно 
+23.1 +12.7 52 +28  1016.3  -0.2  755  278    +25       
12 25.08.14 тихо ()   20000 м    ясно 
+14.4 +13.7 96 +21  1017.9  1.3  756  287           
15 25.08.14 360 (С) 20000 м  туман поземный  ясно 
+13 +12.5 97 +18  1018.5  0.6  757  289           
18 25.08.14 350 (С) 20000 м    ясно 
+12.5 +11.8 96 +17  1018.5  757  289           
00 26.08.14 030 (СВ) 20000 м    ясно 
+19.7 +14.5 72 +29  1018.5  0.1  757  281           
03 26.08.14 100 (В) 20000 м    3/3 1000 м 
[Cu hum]
+23.9 +12.5 49 +28  1017.2  -1.2  756  278           
06 26.08.14 100 (В) 20000 м    1/1 1000 м 
[Cu hum]
+24.7 +11.7 44 +28  1016.1  -1.1  755  277           
12 26.08.14 тихо ()   20000 м    ясно 
+14.5 +13.7 95 +21  1017  0.5  756  286           
15 26.08.14 330 (СЗ) 20000 м    ясно 
+13.5 +13 97 +20  1017.7  0.7  756  288           
18 26.08.14 тихо ()   20000 м    ясно 
+12.4 +11.9 97 +16  1017.8  0.1  756  289           
21 26.08.14 360 (С) 20000 м    3/1 600 м кучево-дожд., средняя, верхняя 
[Cb cap|Ac lent|Ci fib]
+12.5 +12 97 +18  1018.6  0.8  757  289  +11.3        сухая 
00 27.08.14 020 (С) 20000 м    5/5 600 м кучево-дожд. 
[Cb cap]
+19.3 +14.1 72 +28  1018.6  0.2  757  282           
03 27.08.14 210 (ЮЗ) 20000 м    3/1 600 м кучево-дожд., верхняя 
[Cb cap|Ci fib]
+24.6 +14.7 54 +33  1017.4  -1  756  277           
06 27.08.14 180 (Ю) 20000 м    6/3 600 м кучево-дожд., верхняя 
[Cb cap|Ci fib]
+26 +14.7 50 +34  1016.3  -1.1  755  275           
12 27.08.14 210 (ЮЗ) 20000 м    1/0 средняя 
[Ac lent]
+16.9 +15.7 93 +28  1017.1  0.8  756  283           
15 27.08.14 тихо ()   20000 м    ясно 
+14.1 -13.5 13 +14  1017.5  0.3  756  291           
18 27.08.14 тихо ()   20000 м    ясно 
+12.3 +11.8 97 +16  1017.6  0.1  756  289           
00 28.08.14 160 (Ю) 20000 м    ясно 
+21.5 +15.5 69 +31  1017.7  0.1  756  279           
03 28.08.14 170 (Ю) 20000 м    3/3 1000 м верхняя 
[Cu med, cong|Ci fib]
+26.3 +15.3 51 +35  1016.5  -1.1  755  275           
06 28.08.14 180 (Ю) 20000 м    3/3 1000 м верхняя 
[Cu med, cong|Ci fib]
+26.8 +12.6 41 +31  1015.6  -0.9  755  275           
12 28.08.14 230 (ЮЗ) 20000 м    ясно 
+16 +14.8 93 +25  1016.7  0.9  755  284           
15 28.08.14 тихо ()   20000 м    ясно 
+13.1 +12.5 96 +18  1016.7  0.1  755  288           
18 28.08.14 250 (З) 20000 м  туман поземный  ясно 
+11.5 +11.1 97 +15  1017.1  0.3  756  290           
00 29.08.14 170 (Ю) 20000 м    ясно 
+20.6 +15.2 71 +29  1017.3  0.2  756  280           
03 29.08.14 190 (Ю) 20000 м    3/3 600 м кучево-дожд. 
[Cb calv]
+26.6 +15.5 51 +36  1016.2  -0.9  755  274           
06 29.08.14 180 (Ю) 20000 м    3/3 600 м кучево-дожд. 
[Cb cap]
+27.2 +15 47 +36  1014.9  -1.3  754  273           
12 29.08.14 тихо ()   20000 м    ясно 
+17.2 +16.1 93 +28  1016.2  1.2  755  283           
15 29.08.14 тихо ()   20000 м    ясно 
+15 +14.5 97 +23  1016.2  755  285           
18 29.08.14 тихо ()   20000 м  туман поземный  ясно 
+13.2 +12.7 97 +18  1016.2  755  288           
21 29.08.14 тихо ()   20000 м  туман поземный  1/0 верхняя 
[Cc]
+13.7 +13.2 97 +19  1017.1  756  287  +12.7        сухая 
00 30.08.14 360 (С) 20000 м    ясно 
+20.7 +15.9 74 +31  1016.8  756  280           
03 30.08.14 180 (Ю) 20000 м    1/1 1000 м 
[Cu med, cong]
+27 +18.1 58 +41  1015.6  -1  755  273           
06 30.08.14 180 (Ю) 20000 м    5/4 600 м кучево-дожд., верхняя 
[Cb cap|Ci sp]
+28.4 +16.3 48 +39  1013.9  -1.6  754  272           
12 30.08.14 тихо ()   20000 м    5/0 средняя, верхняя 
[Ac cuf|Ci fib]
+17.5 +16.7 95 +29  1014.9  1.3  754  282           
15 30.08.14 тихо ()   20000 м    ясно 
+15.2 +14.7 97 +23  1015  754  285           
18 30.08.14 тихо ()   20000 м    ясно 
+13.9 +13.5 97 +20  1015.1  754  286           
00 31.08.14 340 (С) 20000 м    ясно 
+22.3 +16.4 69 +33  1015.1  0.2  754  277           
03 31.08.14 180 (Ю) 20000 м    3/0 кучево-дожд. 
[Cb calv]
+27.9 +18.2 56 +42  1013.8  -1.2  754  271           
06 31.08.14 210 (ЮЗ) 20000 м  в посл. час гроза  4/4 600 м кучево-дожд. 
[Cb cap]
+28.8 +16.1 46 +39  1012.3  -1.4  752  271           
12 31.08.14 тихо ()   20000 м    ясно 
+17.5 +16.2 92 +28  1013.9  0.8  753  282           
15 31.08.14 тихо ()   20000 м    ясно 
+15.3 +14.6 96 +23  1014.5  0.5  754  285           
18 31.08.14 тихо ()   20000 м  туман поземный  ясно 
+13.5 +13 97 +19  1014.3  -0.3  754  287           
21 31.08.14 тихо ()   0500 м  туман  ясно 
+12.8 +12.4 97 +17  1015.2  0.8  754  288  +12.6        сухая 
00 01.09.14 240 (ЮЗ) 20000 м  {туман}  1/0 верхняя 
[Ci fib]
+21.8 +16.4 71 +33  1015.4  0.6  755  278           
03 01.09.14 200 (Ю) 20000 м    6/3 600 м кучево-дожд., верхняя 
[Cb calv|Ci fib]
+27.9 +16.4 50 +39  1014.1  -1.1  754  272           
Время (UTC), дата Ветер
(°,м/с) 
Видим.   Явления Облачность Т
(°С)
Тd
(°С)
f(%) Тe
(°С)
Pmin
(гПа)
dP
(гПа)
Po
(мм)
O2
(г/м3)
Тmin Tmax R s Состояние
почвы